This demonstration page uses our WeatherBlox Daily Observations layout. Learn more.

Left ArrowRight Arrow

Hourly Observations for August 15, 2019

Temp ( °F °C ) Dew Point ( °F °C ) Humidity (%) Winds ( mph kmh ) Pressure ( in mb ) Visibility ( mi km ) Precip ( " mm )
12:56 am 00:56 Mostly Clear 68 20 59 15 73 73 Calm 30.10 1019 10 16 0.00 0.00
1:56 am 01:56 Mostly Clear 66 19 59 15 78 78 Calm 30.09 1019 10 16 0.00 0.00
2:56 am 02:56 Mostly Clear 64 18 61 16 88 88 WNW 5 7 30.09 1019 10 16 0.00 0.00
3:56 am 03:56 Mostly Clear 64 18 61 16 88 88 Calm 30.08 1019 10 16 0.00 0.00
4:56 am 04:56 Mostly Clear 64 18 59 15 83 83 Calm 30.09 1019 10 16 0.00 0.00
5:56 am 05:56 Partly Cloudy 63 17 59 15 88 88 Calm 30.08 1019 10 16 0.00 0.00
6:56 am 06:56 Partly Cloudy 64 18 59 15 83 83 Calm 30.09 1019 10 16 0.00 0.00
7:56 am 07:56 Mostly Sunny 66 19 63 17 88 88 Calm 30.08 1019 10 16 0.00 0.00
8:56 am 08:56 Sunny 70 21 63 17 78 78 undefined N/A 30.06 1018 10 16 0.00 0.00
9:56 am 09:56 Mostly Sunny 70 21 64 18 83 83 ESE 7 11 30.04 1017 10 16 0.00 0.00
10:56 am 10:56 Cloudy 72 22 63 17 73 73 WSW 3 6 30.08 1019 7 11 0.00 0.00
11:40 am 11:40 Mostly Cloudy with Light Showers 70 21 64 18 83 83 W 6 9 30.08 1019 5 8 0.00 0.00
11:56 am 11:56 Mostly Cloudy with Light Showers 70 21 64 18 83 83 WSW 6 9 30.10 1019 5 8 0.00 0.00
12:58 pm 12:58 Mostly Cloudy with Thunderstorms 66 19 64 18 94 94 S 7 11 30.02 1017 2 3 0.00 0.00
1:08 pm 13:08 Mostly Cloudy N/A N/A N/A ESE 15 24 N/A N/A 0.00 0.00
1:56 pm 13:56 Mostly Cloudy 66 19 64 18 94 94 S 6 9 30.01 1016 10 16 0.00 0.00
2:56 pm 14:56 Mostly Cloudy 70 21 64 18 83 83 S 12 19 29.98 1015 10 16 0.00 0.00
3:56 pm 15:56 Partly Cloudy 73 23 63 17 69 69 S 13 20 29.96 1015 10 16 0.00 0.00
4:56 pm 16:56 Mostly Cloudy 73 23 64 18 74 74 S 7 11 29.96 1015 10 16 0.00 0.00
5:56 pm 17:56 Mostly Cloudy 73 23 64 18 74 74 SSE 5 7 29.95 1014 10 16 0.00 0.00
6:56 pm 18:56 Mostly Cloudy 72 22 63 17 73 73 Calm 29.93 1014 10 16 0.00 0.00
7:56 pm 19:56 Mostly Cloudy 72 22 63 17 73 73 SSW 3 6 29.93 1014 10 16 0.00 0.00
8:56 pm 20:56 Mostly Cloudy 72 22 64 18 78 78 ESE 7 11 29.93 1013 10 16 0.00 0.00
9:56 pm 21:56 Mostly Cloudy 72 22 64 18 78 78 SE 6 9 29.93 1014 10 16 0.00 0.00
10:56 pm 22:56 Mostly Cloudy 70 21 64 18 83 83 SE 9 15 29.94 1014 10 16 0.00 0.00
11:56 pm 23:56 Mostly Cloudy 70 21 64 18 83 83 ESE 5 7 29.95 1014 10 16 0.00 0.00

Powered by AerisWeather